TimeCDT,TemperatureF,Dew PointF,Humidity,Sea Level PressureIn,VisibilityMPH,Wind Direction,Wind SpeedMPH,Gust SpeedMPH,PrecipitationIn,Events,Conditions,WindDirDegrees,DateUTC
12:53 AM,53.1,51.1,93,30.13,5.0,Calm,Calm,-,N/A,,Clear,0,2013-04-23 05:53:00
1:53 AM,53.1,50.0,89,30.11,5.0,Calm,Calm,-,N/A,,Clear,0,2013-04-23 06:53:00
2:53 AM,52.0,50.0,93,30.10,4.0,Calm,Calm,-,N/A,,Partly Cloudy,0,2013-04-23 07:53:00
3:51 AM,51.8,50.0,94,30.11,5.0,Calm,Calm,-,N/A,,Mostly Cloudy,0,2013-04-23 08:51:00
3:53 AM,52.0,50.0,93,30.11,5.0,Calm,Calm,-,N/A,,Mostly Cloudy,0,2013-04-23 08:53:00
5:00 AM,57.2,53.6,88,30.12,8.0,NE,3.5,-,N/A,,Overcast,50,2013-04-23 10:00:00
5:53 AM,55.9,54.0,93,30.13,6.0,ENE,3.5,-,N/A,,Overcast,70,2013-04-23 10:53:00
6:53 AM,57.0,55.0,93,30.14,6.0,ENE,5.8,-,N/A,,Overcast,70,2013-04-23 11:53:00
7:53 AM,62.1,57.0,84,30.15,10.0,East,3.5,-,N/A,,Mostly Cloudy,90,2013-04-23 12:53:00
8:53 AM,66.9,55.0,66,30.16,10.0,ESE,9.2,-,N/A,,Overcast,110,2013-04-23 13:53:00
9:53 AM,70.0,54.0,57,30.16,10.0,ESE,9.2,-,N/A,,Mostly Cloudy,120,2013-04-23 14:53:00
10:53 AM,72.0,54.0,53,30.17,10.0,SE,10.4,-,N/A,,Overcast,130,2013-04-23 15:53:00
11:53 AM,75.0,55.0,50,30.14,10.0,SE,9.2,-,N/A,,Mostly Cloudy,130,2013-04-23 16:53:00
12:53 PM,75.0,54.0,48,30.12,10.0,SSW,6.9,-,N/A,,Mostly Cloudy,200,2013-04-23 17:53:00
1:53 PM,79.0,55.0,44,30.11,10.0,SSE,5.8,-,N/A,,Scattered Clouds,160,2013-04-23 18:53:00
2:53 PM,79.0,55.0,44,30.09,10.0,SSW,3.5,-,N/A,,Mostly Cloudy,200,2013-04-23 19:53:00
3:53 PM,80.1,55.9,43,30.07,10.0,SSW,8.1,-,N/A,,Scattered Clouds,200,2013-04-23 20:53:00
4:53 PM,77.0,57.0,50,30.07,10.0,South,10.4,-,N/A,,Scattered Clouds,170,2013-04-23 21:53:00
5:53 PM,75.0,57.9,55,30.07,10.0,South,11.5,16.1,N/A,,Clear,190,2013-04-23 22:53:00
6:53 PM,72.0,57.0,59,30.07,10.0,South,6.9,-,N/A,,Clear,180,2013-04-23 23:53:00
7:53 PM,68.0,57.9,70,30.09,10.0,South,4.6,-,N/A,,Clear,180,2013-04-24 00:53:00
8:53 PM,64.9,59.0,81,30.11,10.0,South,3.5,-,N/A,,Clear,170,2013-04-24 01:53:00
9:53 PM,61.0,57.0,87,30.11,10.0,Calm,Calm,-,N/A,,Clear,0,2013-04-24 02:53:00
10:53 PM,57.9,55.0,90,30.11,10.0,Calm,Calm,-,N/A,,Clear,0,2013-04-24 03:53:00
11:18 PM,57.2,55.4,94,30.11,2.0,Calm,Calm,-,N/A,,Clear,0,2013-04-24 04:18:00
11:27 PM,57.2,53.6,88,30.11,10.0,Calm,Calm,-,N/A,,Clear,0,2013-04-24 04:27:00
11:53 PM,57.0,54.0,89,30.10,8.0,Calm,Calm,-,N/A,,Clear,0,2013-04-24 04:53:00